Location: Cheching
(60.0667°N, 164.2167°W)
Time: 21:22:27
(UTC+00:00)

LilacSat-2 - Pass Details

Date: 23 January 2021
Orbit: 512 x 534 km, 97.5° (Epoch: 07 March)

Event Time Altitude Azimuth Distance (km) Brightness Sun altitude
Rises 04:03:54 0° 180° (S) 2,636 ? -9.0°
Reaches altitude 10° 04:06:03 10° 187° (S) 1,756 ? -9.3°
Maximum altitude 04:09:41 44° 261° (W) 734 ? -9.7°
Drops below altitude 10° 04:13:23 10° 335° (NNW) 1,783 ? -10.1°
Sets 04:15:35 0° 342° (NNW) 2,682 ? -10.4°
